Wind_Speed
18 17 17 18 22 23 22 24 25 25 24 24 23 22 23 23 25 25 25 32 27 26
25 21 18 16 17 23 24 24 23 23 24 25 27 27 27 27 28 29 28 27 28 34
31 23 20 20 21 21 23 24 27 27 26 26 27 25 26 29 28 27 28 29 30 31
33 28 21 22 20 21 22 23 26 28 28 29 29 27 28 29 27 27 26 26 27 30
33 30 22 20 21 22 26 26 25 29 31 30 27 28 30 28 27 28 26 26 26 27
32 30 30 24 23 22 25 26 22 25 27 29 29 31 31 29 28 27 26 25 27 28
30 30 33 26 23 22 24 25 23 24 25 25 30 30 27 25 25 25 25 27 27 27
34 33 34 29 24 23 25 24 24 22 21 24 22 18 18 18 23 26 27 30 31 30
32 32 31 30 24 25 27 23 22 23 22 18 14 12 15 17 22 26 29 30 35 33
31 32 32 30 25 24 26 21 19 18 15 13 11 11 12 17 24 26 28 32 31 28
31 33 33 30 26 25 24 20 16 13 13 12 9 8 11 19 21 22 24 27 29 25
33 35 31 30 27 24 21 12 12 14 15 12 6 6 10 14 12 11 12 13 23 26
35 34 33 30 26 18 12 7 6 9 10 9 5 4 5 5 2 4 7 8 6 6
35 33 32 27 15 9 3 7 10 13 11 8 3 1 2 5 12 15 18 18 19 22
Wind_Direction
352 280 263 263 263 256 250 248 248 247 249 248 246 252 259 261 259 257 255 255 255 255
331 331 318 309 295 275 266 263 257 251 249 252 253 257 254 258 255 252 257 258 258 255
323 320 313 304 297 296 290 278 263 260 261 256 253 250 252 251 249 252 255 258 260 259
323 319 313 305 301 302 300 287 275 268 258 255 251 251 247 245 249 248 250 255 254 252
319 315 315 308 305 299 296 294 285 266 256 250 250 251 246 245 240 245 251 254 254 254
314 320 315 305 317 307 297 289 288 273 252 244 247 244 244 240 243 248 254 255 255 253
311 325 320 313 313 315 307 294 287 276 263 256 250 241 241 240 246 245 253 259 261 255
323 324 322 313 305 321 308 290 286 274 264 254 241 234 239 252 258 258 258 258 260 259
317 321 312 308 314 315 303 287 278 265 250 226 217 239 250 256 261 261 257 256 259 259
318 317 311 313 318 308 301 291 268 243 207 210 230 241 250 277 280 263 256 252 248 249
317 313 309 313 312 304 305 280 238 212 214 221 243 248 288 302 290 275 265 257 245 237
313 307 313 308 308 302 295 270 205 216 219 227 239 278 303 305 284 267 250 245 232 220
306 313 300 300 295 292 284 259 206 192 196 203 213 287 308 283 83 127 113 108 119 178
305 297 296 303 282 263 218 144 129 120 107 109 128 34 88 119 105 92 85 88 97 117
Height
775 774 772 772 772 770 770 770 772 772 772 773 773 775 778 778 779 779 781 783 784 784
774 772 769 768 766 765 764 764 764 765 765 766 766 768 771 772 771 772 773 775 777 777
774 768 766 763 761 760 759 757 757 757 757 758 758 760 763 765 764 765 766 767 769 769
770 766 763 760 757 756 754 752 750 749 749 750 750 752 755 757 757 758 759 760 761 761
770 765 759 756 751 749 748 746 742 741 741 741 742 745 747 749 750 751 752 753 754 754
768 760 754 750 742 741 741 740 736 733 733 733 734 736 739 741 742 743 743 744 745 746
767 753 748 743 738 735 733 731 727 727 726 725 727 728 730 733 734 735 736 736 736 737
754 749 742 740 737 727 727 724 722 721 719 720 722 723 724 726 727 727 727 727 727 727
755 747 744 738 729 724 722 718 716 714 714 715 717 719 721 721 721 720 718 717 715 716
751 745 740 732 724 721 717 712 710 709 710 712 713 714 715 714 712 709 706 704 704 704
748 742 735 726 720 717 712 706 705 706 708 709 709 709 708 705 701 698 695 693 693 695
743 739 726 722 716 713 709 704 701 702 704 705 705 704 703 699 694 691 688 686 686 689
740 728 727 720 715 710 705 701 698 699 700 701 702 701 699 696 691 689 686 685 686 688
737 732 723 716 711 707 701 699 698 698 698 699 699 699 697 694 692 690 688 689 690 692